Theta_e
356 355 353 354 352 353 352 353 350 351 352 350 350 350 351 351 351 351 352 353 353 353 348 340 338 340 341 342 343 344 346 348 349 350 349 348 347 347 347 348 348 348 348 348 348 347 348 349 350 351 352 353 354 353 353 353 352 353 353 352 351 351 353 353 354 353 352 352 350 348 349 349 348 348 349 349 349 349 349 350 350 350 352 352 352
357 356 354 352 353 355 353 353 350 352 352 350 350 350 352 353 354 354 354 354 353 352 347 341 342 344 345 346 346 347 349 350 351 352 351 350 350 349 348 349 350 350 350 350 350 350 350 350 350 351 351 353 353 353 353 353 353 353 353 352 352 352 353 352 352 351 351 352 350 350 350 350 350 349 349 349 349 350 349 350 349 349 351 351 351
355 356 353 351 352 354 354 353 351 352 351 349 350 352 353 353 355 355 355 354 352 350 346 345 346 347 347 349 349 351 351 352 353 353 352 351 351 350 350 349 350 351 352 352 351 351 351 350 350 350 350 352 352 352 352 352 352 352 353 352 353 353 352 349 349 350 350 351 350 350 350 350 350 350 349 349 349 349 349 349 348 346 348 350 350
355 355 352 351 352 353 354 353 350 351 352 351 350 352 352 352 354 355 355 353 351 349 348 348 348 348 349 350 351 352 353 353 353 352 353 352 352 352 352 351 350 352 352 351 350 351 352 351 351 351 351 352 351 350 351 351 352 351 352 352 352 353 350 347 348 350 350 352 351 350 351 350 350 350 349 349 349 349 349 348 347 347 347 350 349
353 353 352 352 353 353 353 352 350 351 352 352 352 352 352 351 353 354 354 352 351 349 348 349 349 351 352 353 353 353 353 354 353 353 353 353 352 352 352 351 351 351 350 350 351 352 351 351 351 351 351 352 351 351 351 350 351 351 352 351 352 352 349 348 349 351 351 352 351 350 351 351 350 349 349 349 349 347 348 346 346 347 348 348 348
352 353 353 353 352 351 351 350 349 350 350 351 352 352 352 352 353 353 353 351 349 347 347 347 349 352 353 354 354 354 353 354 353 352 352 351 352 352 351 351 351 351 350 351 352 352 352 352 352 352 351 352 352 352 352 351 351 352 351 351 352 351 349 349 351 352 351 351 350 349 350 350 349 349 349 349 348 346 345 345 345 347 349 347 347
354 354 353 353 351 347 346 347 347 348 348 349 350 351 352 352 352 352 349 348 346 345 345 346 348 352 353 354 354 354 353 353 351 350 350 350 350 350 350 351 351 351 352 352 353 352 351 352 352 352 351 352 352 351 351 351 351 350 350 350 350 350 350 350 352 351 349 350 350 349 349 350 350 349 349 348 346 345 344 345 345 346 348 347 346
353 354 351 351 350 344 344 344 346 349 347 348 348 350 350 349 349 347 346 345 345 346 347 347 349 350 352 353 352 353 353 352 351 350 351 350 350 349 349 350 350 352 353 352 352 352 352 352 352 352 350 351 351 351 351 351 350 349 349 349 349 349 349 351 351 350 350 350 348 348 349 350 350 349 348 346 345 344 345 346 346 346 347 346 346
352 353 350 350 350 345 347 346 346 346 344 346 347 348 347 345 346 345 347 346 348 349 349 348 349 350 351 352 351 353 352 351 351 352 352 351 350 350 349 350 350 350 352 352 352 352 352 352 351 351 349 348 349 350 350 350 349 348 348 348 349 349 350 351 350 349 351 351 349 349 349 349 350 349 347 345 346 346 347 348 348 348 347 346 345
353 352 351 352 351 348 350 350 349 348 347 349 349 349 347 347 348 348 349 349 350 352 352 350 351 351 351 351 351 352 352 351 351 352 351 350 351 350 350 350 350 350 352 352 352 352 351 351 350 350 349 349 350 350 349 349 348 346 345 346 349 350 351 351 350 351 352 351 348 348 349 349 349 349 347 346 347 347 348 348 348 346 344 342 340
352 352 352 353 351 350 352 352 352 352 352 352 352 351 350 350 350 349 350 350 352 352 352 352 351 351 350 351 351 353 353 351 351 352 352 350 350 349 349 351 350 351 352 351 351 352 352 351 351 350 350 350 350 350 349 348 346 343 343 346 350 351 350 350 350 352 352 350 348 349 350 350 349 348 346 346 346 347 348 347 346 344 340 339 338
352 351 353 352 350 351 353 353 353 352 352 351 351 350 349 349 351 352 349 349 352 352 351 351 351 351 352 352 352 354 354 351 349 351 352 350 349 349 350 351 351 351 352 352 351 352 352 352 352 350 350 350 351 350 349 347 345 343 344 347 348 349 349 349 349 350 351 350 350 349 350 349 349 347 345 345 345 347 348 346 345 343 340 340 340
351 351 353 353 351 351 353 352 352 352 351 351 350 349 349 349 351 352 349 348 351 352 350 351 351 352 353 353 353 354 353 352 349 350 352 351 350 350 351 352 351 352 352 352 352 351 350 351 352 350 349 350 350 348 347 347 346 344 346 348 346 348 349 348 348 348 349 350 351 350 350 350 347 346 345 345 345 346 347 346 345 343 342 341 341
351 350 353 354 352 351 352 352 353 352 351 351 351 350 350 351 351 351 350 351 350 351 351 352 353 353 353 353 353 353 354 353 351 351 351 352 351 351 351 351 350 351 352 352 352 350 348 349 351 351 349 349 349 348 347 348 346 343 346 349 348 347 349 349 348 348 349 349 350 350 349 348 346 345 345 345 345 346 347 347 345 344 342 341 341
349 349 353 354 352 352 352 353 353 352 351 352 351 351 353 353 352 351 352 352 352 352 352 353 354 353 353 352 352 352 353 352 352 351 350 351 352 351 351 351 350 350 351 352 352 350 348 348 348 350 349 348 348 347 346 345 344 341 343 349 350 349 349 349 349 348 349 349 349 349 347 346 346 346 345 344 345 345 347 347 345 344 343 342 342
348 350 352 354 354 354 353 353 352 351 351 352 352 353 354 354 353 352 353 352 353 354 353 354 353 352 352 352 352 352 352 351 352 352 351 352 352 351 352 352 351 351 351 351 351 348 347 347 347 348 348 348 348 346 346 345 343 342 343 348 350 349 348 348 348 348 348 350 349 348 348 347 346 346 347 345 345 344 346 347 346 344 344 344 343
348 350 352 353 355 355 355 354 352 351 351 352 354 354 354 354 354 354 354 353 354 353 353 353 353 353 353 352 352 351 351 351 352 352 352 352 352 352 352 352 351 351 352 351 349 347 346 346 347 347 346 347 347 347 346 346 344 341 342 348 350 349 347 347 348 348 349 350 349 347 347 348 346 346 346 345 345 345 345 347 347 346 346 345 345
349 350 352 354 354 354 355 355 353 353 353 353 354 354 354 353 354 354 354 354 353 353 353 353 353 353 353 352 351 350 349 351 352 352 352 352 352 351 351 351 351 351 351 351 348 347 347 346 346 346 346 347 348 348 347 346 344 341 341 346 350 349 348 348 348 348 348 348 348 348 347 346 346 346 345 344 345 346 346 346 346 348 348 347 346
349 350 351 352 352 352 355 354 354 355 354 354 354 353 353 353 354 353 353 353 352 352 352 353 354 353 353 352 349 347 347 349 350 350 351 351 350 351 351 351 351 350 350 350 348 346 347 346 345 346 346 346 347 347 346 345 344 341 342 346 349 349 348 348 349 349 347 347 347 347 347 346 346 346 346 345 345 345 345 345 347 349 348 348 348
349 350 350 350 352 353 354 354 353 356 356 355 355 353 353 353 354 353 353 353 352 352 352 353 354 354 353 351 348 348 348 347 347 348 349 350 350 350 350 350 349 349 349 347 346 346 346 345 345 345 345 346 346 345 345 345 343 343 344 348 349 349 349 347 348 349 348 348 347 347 347 346 346 346 344 345 345 345 345 346 347 347 347 347 347
350 350 350 349 352 354 355 354 353 356 356 355 355 354 352 353 354 353 352 351 351 351 352 353 353 353 353 352 351 351 350 350 350 350 350 349 349 350 349 348 348 349 349 347 346 346 345 345 345 345 346 346 346 345 345 344 343 345 348 349 350 349 350 348 347 349 348 348 347 345 346 347 348 347 346 346 347 346 347 348 348 347 347 346 346
349 350 349 349 353 355 356 356 354 354 354 353 354 354 353 354 354 353 352 351 350 351 353 354 353 353 353 352 351 351 352 353 353 352 351 351 350 350 349 348 348 348 349 348 347 347 345 344 346 348 349 349 348 348 346 345 345 347 349 350 349 348 349 348 348 349 348 348 345 343 344 347 348 348 347 347 347 346 347 348 348 347 347 347 346
349 349 350 349 352 355 356 357 355 353 353 352 352 354 354 353 354 354 354 353 352 354 354 353 353 353 353 352 351 353 353 353 352 351 352 352 351 350 349 347 347 348 348 348 347 346 344 345 348 350 351 350 349 350 350 349 349 350 350 350 349 349 350 348 348 349 348 348 344 341 344 346 347 347 345 344 344 345 346 346 347 347 346 347 347
347 349 350 349 352 355 355 356 356 352 351 354 353 354 354 354 355 354 354 355 355 357 355 353 351 351 353 352 352 353 351 351 352 352 352 351 351 350 349 348 348 349 348 348 346 345 344 347 351 350 350 350 348 349 350 349 348 350 349 349 349 349 350 347 348 349 350 347 342 341 344 346 347 345 343 343 343 343 345 345 346 347 347 347 346
346 348 350 350 351 353 354 356 356 353 350 353 353 354 355 355 355 354 354 356 357 357 356 354 352 352 354 351 351 352 350 351 352 353 353 352 350 351 350 349 350 350 348 348 348 347 345 349 350 348 348 349 349 349 350 349 349 349 349 349 350 350 349 347 347 349 351 347 341 342 344 345 346 346 344 342 342 343 343 344 346 347 347 346 346
345 348 349 349 351 352 353 355 355 355 354 353 352 353 354 354 353 354 355 355 356 356 355 354 353 355 354 351 351 351 352 353 353 352 353 351 351 351 350 349 350 350 350 348 348 349 348 348 348 348 347 347 349 350 351 350 349 348 349 351 350 350 349 349 347 348 351 347 341 342 343 345 346 346 346 344 344 344 343 344 344 345 346 346 346
344 347 349 348 350 351 352 353 354 356 356 355 354 354 354 352 352 354 354 352 352 352 352 351 354 355 352 351 351 351 352 353 354 354 352 350 350 350 349 350 350 350 349 349 348 349 350 349 349 349 348 347 348 349 349 350 350 348 348 349 348 348 348 348 348 348 351 347 342 342 342 343 345 346 347 345 345 346 345 343 343 343 344 345 345
346 347 348 348 349 351 351 350 353 355 355 356 354 353 353 351 351 352 351 350 350 349 349 351 353 354 352 351 350 350 352 352 353 353 351 350 350 350 350 350 351 350 349 350 350 351 351 349 350 351 350 349 349 349 348 349 350 348 348 349 347 347 346 346 347 347 349 348 343 341 342 342 343 344 346 346 346 346 346 344 343 341 342 342 344
347 347 347 347 348 350 351 350 352 354 356 355 353 353 352 348 351 351 349 349 348 347 347 349 351 351 352 353 351 349 350 352 352 351 351 351 351 350 350 351 351 350 350 350 352 352 351 351 351 352 352 350 349 348 347 347 348 346 346 348 348 347 346 346 345 345 348 350 347 342 342 343 344 344 344 345 345 346 347 346 345 343 341 341 342
348 346 346 347 347 349 350 350 352 354 354 354 352 353 351 348 350 350 350 349 346 347 347 347 348 349 352 355 355 352 350 351 353 352 352 352 353 351 351 352 351 351 351 351 352 352 352 353 352 352 352 351 349 348 347 346 345 344 344 346 347 347 349 348 345 344 345 350 349 343 341 342 343 344 344 345 345 346 347 347 346 345 343 342 341
348 347 345 345 347 348 350 350 351 353 353 352 352 353 352 348 349 350 349 349 348 348 347 345 348 350 352 356 358 355 353 353 354 354 353 352 352 351 351 353 352 352 353 352 352 352 353 354 354 353 353 352 350 350 348 346 344 343 342 344 346 347 349 348 346 345 344 347 350 347 343 342 343 344 344 345 345 345 346 346 345 345 345 344 343
348 348 345 344 347 348 349 352 351 353 352 351 353 354 352 350 349 348 347 349 350 348 346 346 351 354 354 357 359 358 356 356 358 356 353 352 352 351 352 353 353 353 353 353 352 351 352 354 353 353 353 352 350 349 347 345 344 342 342 343 345 347 349 349 346 346 345 345 349 351 348 345 344 343 344 345 345 344 345 344 344 345 346 345 344
350 348 347 345 346 348 349 351 352 354 352 351 352 353 352 351 350 347 347 350 351 348 346 348 353 356 356 359 360 359 359 358 360 358 352 351 352 352 353 353 353 353 354 353 353 351 352 353 352 353 353 351 351 350 347 346 344 343 343 343 344 346 348 348 347 346 347 345 346 349 351 350 347 344 344 344 345 345 344 344 344 345 345 345 345
351 349 347 345 344 346 348 349 351 353 352 350 351 351 350 350 350 348 349 352 350 348 347 349 355 356 356 359 358 358 361 361 360 358 353 351 351 351 352 353 353 354 354 353 353 351 351 352 353 354 351 350 351 350 349 347 345 344 343 343 343 346 348 348 347 346 346 346 345 345 349 351 350 349 347 344 344 344 344 344 344 345 345 345 345
350 350 348 346 343 345 347 347 350 352 352 351 351 351 349 348 348 348 351 351 349 349 348 350 352 354 353 356 358 359 362 363 361 358 354 352 352 351 351 353 355 353 352 353 353 351 351 351 351 354 352 351 351 351 351 348 345 344 343 344 344 345 346 348 347 347 347 346 346 345 346 348 350 352 351 348 347 344 342 343 344 344 345 345 346
350 349 349 347 344 345 346 346 349 351 351 351 351 351 349 348 348 348 350 350 350 350 349 348 350 351 352 354 357 359 361 362 364 360 355 353 351 351 352 353 355 353 351 354 353 351 351 350 349 352 353 355 352 350 352 349 346 344 343 343 343 344 346 347 347 346 347 346 346 345 346 347 349 351 351 351 351 347 343 342 342 343 344 345 346
350 349 350 348 345 347 347 345 349 350 350 351 353 352 351 350 350 350 350 351 351 350 349 348 348 350 352 354 357 360 360 361 363 361 357 353 351 351 354 355 354 353 354 354 353 351 351 351 352 353 354 356 353 350 351 349 346 343 342 343 343 343 346 346 346 346 344 344 345 344 344 345 346 347 349 350 352 350 348 344 341 341 343 345 345
350 350 351 349 346 347 347 345 348 350 350 353 354 352 353 353 352 351 351 351 351 349 350 349 348 348 352 356 358 360 361 362 362 362 360 356 353 353 354 357 356 356 356 354 352 352 351 354 356 356 355 355 353 351 350 348 345 343 343 342 342 343 345 347 346 344 344 342 343 342 342 343 343 344 346 347 349 351 351 348 344 342 342 344 344
352 350 351 350 349 348 347 346 348 349 350 355 355 354 355 354 353 350 351 352 349 348 348 349 349 348 351 355 358 360 361 363 363 362 362 357 353 354 355 356 358 358 357 353 352 353 353 355 356 358 359 357 355 355 353 350 347 344 343 342 343 344 344 347 346 345 345 342 342 342 341 342 342 342 343 344 347 350 351 351 350 349 348 348 346
352 351 352 352 351 350 349 348 348 349 351 355 356 354 354 354 352 350 350 351 348 347 347 348 349 349 351 355 358 360 360 362 364 363 362 357 355 357 357 357 358 358 356 352 353 354 355 355 355 358 361 359 356 355 355 352 348 346 345 343 343 345 345 347 346 345 345 343 343 343 342 342 342 342 343 343 344 346 348 350 350 349 350 350 348
352 352 352 352 352 352 350 350 350 350 352 355 355 352 352 352 350 349 349 349 349 349 349 349 348 348 352 356 357 360 360 360 362 363 364 361 359 359 360 360 358 358 358 356 355 355 355 355 356 356 357 358 357 355 354 353 350 347 346 345 344 345 346 346 347 345 344 344 343 343 343 342 342 343 343 342 343 343 345 347 347 347 348 349 348
353 352 353 354 353 352 352 352 351 350 352 354 354 351 350 350 348 347 345 345 347 348 348 348 347 347 352 357 358 357 359 359 359 361 363 363 361 361 362 361 359 359 359 359 357 357 356 355 354 354 355 358 357 355 354 353 350 347 345 345 344 344 344 344 345 344 343 344 343 342 341 342 343 343 343 343 343 343 344 345 345 346 347 348 348
354 354 354 355 355 353 353 354 353 352 353 354 352 349 348 347 344 344 342 342 344 345 346 346 346 347 351 356 358 358 358 358 358 359 360 360 361 362 362 361 360 359 360 361 361 359 360 356 353 354 356 357 356 355 355 354 350 345 345 346 345 345 345 344 343 343 343 342 342 342 341 342 343 343 345 346 345 345 344 345 345 345 346 347 348
354 354 355 355 355 355 354 356 355 354 354 355 353 348 347 347 344 342 341 341 343 343 344 346 346 346 349 354 356 358 358 357 357 357 357 358 360 361 361 361 361 361 362 365 362 358 358 358 354 354 356 355 355 354 354 354 352 347 346 346 344 344 346 345 344 342 342 342 341 341 340 341 343 344 345 346 345 345 345 346 347 347 347 347 347
355 355 356 356 355 355 356 356 356 355 355 356 354 348 347 348 345 343 343 342 344 344 344 346 347 347 348 351 355 357 357 356 356 356 356 357 358 360 361 362 363 363 361 363 361 355 356 357 355 355 356 355 355 353 351 352 352 349 347 347 345 345 346 343 343 344 342 341 341 342 341 341 343 344 345 345 345 346 345 347 348 349 349 349 348
355 355 355 356 356 356 358 358 357 355 354 357 355 351 349 350 348 347 345 345 348 347 346 345 346 347 346 348 353 355 357 356 356 356 357 357 358 359 360 359 361 361 359 360 360 357 357 356 354 355 356 357 357 354 352 351 352 351 349 348 346 345 345 343 343 345 342 341 340 340 341 342 343 344 344 345 345 346 345 346 348 349 351 350 349
355 355 355 356 357 356 358 359 358 356 355 358 357 353 353 353 350 348 346 347 349 350 347 345 343 345 344 345 349 354 356 357 356 356 357 357 358 359 360 358 357 358 358 357 357 357 356 356 356 357 358 360 359 357 356 354 353 353 348 346 345 343 344 344 345 345 344 343 341 341 341 341 342 343 344 344 345 346 346 345 346 347 349 350 349
355 355 355 355 356 357 359 359 359 357 356 358 358 355 355 355 351 347 345 345 346 346 346 344 341 341 342 343 346 351 356 358 355 355 357 358 358 359 360 359 357 357 356 356 356 355 357 359 359 359 361 362 359 359 359 356 355 354 349 347 346 345 345 344 345 346 345 346 344 343 343 341 341 341 342 343 343 345 345 346 346 346 348 349 349
355 356 356 356 356 357 359 361 360 359 358 359 359 357 355 356 353 348 345 344 343 342 343 342 341 340 342 343 346 349 354 358 356 354 357 358 358 359 360 360 358 357 355 354 353 353 356 360 361 361 362 362 360 360 359 358 356 353 351 351 349 346 345 344 344 344 344 346 346 345 343 341 342 342 341 341 342 343 345 346 346 345 346 348 350
356 356 356 356 356 358 361 361 361 360 359 360 360 359 357 356 354 350 347 345 342 341 341 343 343 342 344 347 348 349 351 355 356 355 356 358 358 359 359 359 358 357 355 354 352 352 354 358 361 362 363 363 363 362 359 359 358 355 355 355 353 351 347 345 345 343 345 346 346 344 343 343 343 344 343 342 341 342 342 345 346 345 345 346 348
356 356 356 357 356 358 361 362 362 361 361 361 362 360 358 357 354 351 349 347 345 343 342 345 347 347 347 350 351 354 352 352 354 354 356 357 357 358 357 357 357 356 356 355 354 352 352 354 357 359 363 364 364 363 360 359 359 358 357 357 356 354 349 348 346 346 347 346 346 345 345 344 344 343 343 343 342 342 341 342 342 344 345 346 347
Wind_Speed
16 19 21 20 20 18 18 19 20 20 19 20 21 21 22 21 20 18 18 18 17 17 17 17 17 17 17 15 14 13 13 12 12 13 13 13 13 12 12 12 11 11 10 10 10 9 9 9 9 9 9 8 7 7 8 8 8 9 9 9 10 10 10 10 11 14 15 15 14 14 16 16 15 14 14 13 13 13 14 15 15 14 12 12 13
18 19 19 21 21 20 18 19 20 19 19 20 21 21 21 22 21 18 17 17 17 17 17 17 17 16 15 14 13 13 12 12 12 12 12 13 12 12 12 12 12 11 10 10 9 9 9 9 9 9 9 9 8 8 9 9 9 9 9 9 9 11 11 11 12 14 16 16 15 15 16 16 14 13 13 13 13 14 14 14 17 16 11 12 13
21 21 20 21 22 20 19 19 19 19 20 21 21 21 22 22 20 18 17 16 16 16 16 16 15 15 14 13 12 12 12 11 11 11 12 12 12 12 12 12 12 11 10 10 10 10 9 9 9 9 9 10 9 10 11 10 10 10 9 9 9 12 11 9 11 15 16 16 16 16 15 15 14 13 13 13 13 15 16 15 16 19 15 14 14
22 21 21 21 21 20 19 19 19 19 20 20 20 21 22 21 19 17 16 16 16 16 15 15 14 14 13 12 12 12 12 11 12 12 12 12 12 12 12 12 12 11 11 10 10 10 11 11 10 10 11 12 11 11 12 11 10 10 9 9 10 12 11 8 11 15 16 16 16 15 14 14 14 12 12 12 13 16 18 18 18 19 19 18 16
24 22 21 21 19 19 18 18 19 19 20 19 19 21 20 19 18 17 16 16 15 15 15 15 14 13 13 12 12 12 12 12 12 12 12 12 11 11 12 12 11 11 10 10 11 12 12 12 12 12 13 13 13 12 12 11 11 11 10 10 11 12 11 10 13 14 15 17 16 14 13 13 13 12 11 11 13 16 18 19 19 18 18 19 18
23 22 21 20 19 19 18 18 18 19 19 18 19 20 19 18 17 16 16 15 14 14 14 14 13 13 12 12 12 12 12 12 13 12 11 11 11 11 11 11 11 11 11 12 12 13 13 12 12 12 12 12 13 12 11 12 11 11 10 10 11 12 12 13 13 12 14 18 16 13 13 12 12 11 11 11 14 17 18 19 19 18 16 17 17
22 22 20 20 19 19 19 17 17 17 17 17 18 18 18 17 16 15 15 14 13 13 13 13 12 12 12 11 12 12 12 12 11 11 10 11 12 12 12 11 11 11 11 13 13 13 13 13 12 12 12 12 12 12 12 12 11 11 11 11 13 13 13 13 11 11 16 17 13 13 13 12 11 11 12 13 16 17 17 18 19 18 14 16 17
22 21 20 20 19 20 19 18 17 16 17 17 17 17 16 16 15 14 14 13 13 13 13 12 11 11 11 11 11 12 12 10 10 10 10 11 12 12 12 12 11 11 11 12 13 12 13 13 12 11 11 12 12 12 12 12 11 12 12 12 13 13 13 12 9 12 18 16 11 13 13 12 11 12 15 16 16 16 16 18 19 17 14 16 16
22 21 21 20 20 21 19 18 18 17 18 17 17 16 16 15 14 13 13 13 13 12 12 12 11 11 11 11 11 12 11 9 9 10 10 11 11 12 12 12 11 11 11 12 12 11 11 11 11 11 12 12 11 11 12 12 12 12 12 12 13 14 14 12 10 14 18 15 11 12 14 13 12 13 15 16 15 15 16 17 16 16 15 15 16
22 21 21 21 21 20 18 18 17 18 18 17 16 16 16 15 15 14 13 13 13 12 12 12 11 11 10 11 12 12 12 10 9 10 10 11 11 11 12 12 11 10 11 12 12 11 11 11 11 12 12 12 11 11 12 12 13 13 13 12 13 14 14 13 12 14 14 15 12 11 13 13 12 12 13 15 15 15 16 15 14 16 15 15 15
22 21 21 21 22 20 19 18 17 18 17 17 16 16 16 16 15 14 14 13 13 13 12 12 11 11 11 12 12 12 13 11 9 10 10 10 10 11 12 11 11 10 11 12 12 11 11 12 12 12 11 11 11 12 13 13 13 13 13 12 11 13 14 15 14 13 12 15 15 13 13 11 11 12 14 14 15 16 15 14 15 16 15 15 15
21 21 22 22 21 20 19 17 17 17 16 16 16 16 16 16 16 14 14 14 13 12 13 13 12 12 12 12 11 12 14 12 10 11 11 10 10 11 12 11 11 11 11 12 12 12 11 12 11 11 11 11 11 12 13 13 13 13 14 11 10 12 14 17 15 13 14 16 15 13 13 11 12 13 15 15 15 16 14 14 15 15 15 15 14
21 21 21 22 20 19 18 17 16 15 15 16 16 17 16 16 16 15 14 14 14 13 14 14 14 12 11 11 11 12 14 12 10 11 11 11 10 11 12 11 11 11 11 11 11 12 11 10 11 10 10 11 11 12 13 13 13 13 14 11 11 14 15 17 16 14 14 16 15 13 12 11 13 14 15 15 15 16 14 13 14 14 14 14 14
22 22 21 21 20 19 18 17 16 15 15 15 17 17 16 16 16 15 15 15 15 14 15 15 14 12 12 11 12 13 14 13 12 12 11 11 11 11 12 12 11 11 11 11 11 11 10 11 11 10 11 11 12 13 13 13 13 14 13 11 11 14 16 16 14 14 14 15 14 12 12 12 13 14 14 15 14 15 14 13 14 13 13 13 13
23 23 22 21 21 19 18 17 16 16 16 16 17 16 16 16 15 16 15 15 15 15 15 14 13 12 12 12 12 13 13 14 13 12 12 11 11 11 12 12 11 11 11 11 11 11 10 11 11 11 11 12 12 13 13 13 14 14 14 12 9 9 12 14 14 14 14 14 13 12 13 13 13 14 13 14 13 14 15 13 13 12 12 12 12
23 23 22 22 21 20 18 17 17 17 17 16 16 16 16 15 15 15 14 15 14 14 14 14 13 12 12 12 12 12 12 13 13 12 12 12 12 12 12 12 11 10 11 11 10 10 10 11 11 12 12 12 12 12 12 13 14 14 15 14 11 9 10 14 15 14 14 12 13 13 13 13 13 13 13 13 13 14 15 13 11 12 11 11 12
22 22 22 22 21 20 19 18 18 17 17 16 16 16 16 15 15 14 14 14 13 14 14 14 14 13 12 12 12 12 12 13 13 13 13 12 12 12 12 12 11 11 11 11 10 10 11 12 12 12 12 12 12 12 12 12 13 14 15 16 14 11 10 14 15 13 13 12 13 13 12 13 12 13 13 13 13 14 14 13 11 11 10 10 11
21 21 22 22 21 20 20 20 19 18 17 16 16 15 15 15 14 14 14 13 14 14 14 14 14 14 14 13 13 13 14 14 14 14 13 13 12 12 13 12 11 11 11 11 10 10 11 12 12 12 12 12 11 11 11 12 12 13 15 16 15 12 11 13 14 14 14 13 14 13 13 12 12 13 13 12 13 13 12 12 12 9 9 10 10
20 21 21 21 20 19 20 20 19 19 18 17 16 15 15 15 14 14 14 14 15 15 15 14 14 14 14 14 14 14 15 15 15 15 14 13 13 13 13 12 11 11 11 10 10 11 12 12 12 13 12 12 11 11 12 12 12 13 14 15 15 12 11 11 12 14 15 15 15 14 14 13 12 12 12 12 11 11 11 11 10 8 8 9 9
19 19 20 19 19 19 19 19 20 18 17 16 16 16 15 14 14 14 14 15 15 15 14 14 14 14 15 15 15 16 16 16 15 15 15 13 13 13 12 12 12 11 10 9 10 10 12 12 12 12 13 12 11 11 12 12 12 12 13 13 13 11 11 12 12 14 15 16 16 15 14 12 11 11 11 12 12 11 10 8 8 7 8 9 9
18 18 18 18 18 18 17 18 20 18 16 17 17 17 16 15 15 14 15 15 15 15 14 14 14 15 15 15 15 15 14 15 14 13 14 14 13 13 12 12 12 12 10 9 10 11 12 12 12 13 13 13 11 11 12 12 12 12 12 11 11 10 10 13 13 14 15 16 16 15 14 13 11 11 11 11 11 10 9 8 8 8 8 8 8
18 17 17 18 17 17 16 16 17 19 18 17 17 17 17 16 15 14 14 14 15 15 14 13 14 15 14 14 14 14 13 14 13 12 13 13 13 12 12 12 12 11 11 10 10 11 12 13 13 12 11 10 10 10 11 12 12 11 11 10 9 9 10 12 15 15 14 16 17 16 15 13 12 11 11 10 9 8 8 8 7 7 7 7 7
19 17 17 18 17 16 16 16 17 19 19 17 17 17 17 16 15 14 13 13 14 13 13 13 13 14 13 13 13 12 12 13 13 12 13 13 13 12 12 12 11 11 11 11 11 11 12 13 12 9 8 9 9 8 7 7 7 8 9 8 7 8 9 12 14 15 14 15 16 15 14 13 12 11 10 10 9 9 8 8 7 7 7 6 6
19 18 17 17 17 16 16 16 17 18 18 17 17 17 16 16 14 13 13 13 12 11 11 12 11 12 13 14 14 12 11 13 14 12 12 13 12 13 12 12 11 11 10 10 11 11 11 11 9 7 6 6 7 7 6 3 4 5 7 7 7 7 9 12 14 14 15 15 15 14 14 13 12 11 10 10 9 9 9 9 8 8 7 7 6
19 18 17 17 17 17 17 16 17 17 17 17 17 16 15 14 14 13 13 13 11 10 10 10 10 10 10 13 15 14 13 12 13 12 12 12 12 13 13 12 12 11 9 10 10 10 10 8 7 7 6 4 3 4 4 4 5 5 6 7 7 7 8 11 13 14 14 14 14 13 13 13 11 11 10 9 9 9 9 9 9 8 8 7 7
19 18 17 17 18 17 17 17 16 15 15 15 15 15 14 13 13 13 13 12 11 11 9 9 9 7 7 10 13 13 13 11 10 11 10 10 11 11 11 12 12 11 10 9 9 9 9 8 7 6 5 4 4 3 3 5 6 6 7 7 7 7 8 9 11 14 14 13 12 11 11 12 11 10 10 9 9 9 9 9 9 8 8 8 7
19 19 18 18 18 17 17 17 16 15 13 13 13 14 13 13 13 13 12 12 11 11 9 9 8 6 6 8 9 10 11 11 10 8 7 9 10 9 9 11 13 13 11 9 9 10 10 9 8 7 5 5 5 5 5 5 6 6 7 7 7 7 8 8 10 13 13 11 10 10 10 10 10 10 9 9 8 8 9 9 9 8 8 7 7
19 19 19 18 19 18 18 17 17 15 14 13 13 13 13 13 13 12 12 12 11 10 9 9 8 7 6 6 6 8 9 10 11 8 7 9 10 9 8 9 11 12 11 9 8 8 7 7 7 6 5 5 5 5 5 5 6 6 6 7 7 7 7 8 9 10 11 11 9 8 9 9 9 9 9 9 8 8 8 8 8 8 8 7 7
20 20 20 19 19 19 18 17 17 16 14 14 14 13 12 13 13 12 12 12 11 10 9 9 8 7 6 4 4 7 8 9 9 8 9 9 8 8 6 7 9 8 7 7 6 6 6 5 5 5 5 4 5 5 5 5 5 6 6 6 6 7 7 7 8 8 10 11 8 7 8 8 7 7 8 8 8 7 7 7 6 6 6 6 6
21 21 20 20 20 20 19 17 17 16 14 14 14 13 12 13 13 11 12 11 10 10 9 9 8 8 7 4 2 5 7 8 8 7 8 8 7 8 7 7 7 7 6 6 5 4 4 5 4 4 4 4 4 4 4 5 5 6 7 5 5 6 6 7 7 7 9 10 7 6 7 6 6 6 6 6 7 7 6 5 5 5 5 5 5
21 22 20 20 20 20 20 18 18 16 15 14 14 13 12 13 13 11 12 11 9 10 9 8 8 8 8 6 4 3 5 8 7 6 7 7 6 7 7 6 6 7 5 5 4 4 4 3 3 3 3 4 3 3 3 4 5 5 6 6 5 5 5 6 6 6 8 8 7 6 6 5 5 4 4 4 5 5 5 4 3 3 4 3 3
22 22 21 21 21 21 20 19 18 16 15 15 14 14 13 13 13 11 12 10 9 9 8 8 8 8 8 7 5 3 5 8 6 5 6 6 5 7 7 5 6 6 4 5 4 4 4 2 1 2 2 2 2 3 3 3 4 4 5 6 6 5 4 5 5 6 6 7 7 7 6 5 5 4 3 4 3 3 3 3 2 2 2 2 3
22 22 21 22 22 21 21 19 18 17 15 15 14 14 13 13 13 12 11 10 9 9 8 8 7 8 8 7 6 5 5 6 4 4 5 4 4 6 6 4 5 5 4 5 3 3 4 2 2 2 1 1 2 2 2 2 4 4 4 5 6 5 4 5 5 5 5 6 6 6 7 5 4 4 3 3 3 2 2 1 1 2 1 2 2
22 22 21 23 22 21 21 19 19 18 16 15 14 13 13 13 13 12 11 10 9 8 8 8 8 8 8 7 7 7 5 5 4 4 5 5 4 5 5 5 5 5 5 4 2 2 2 1 3 3 2 1 1 2 2 2 3 3 3 5 6 5 4 4 5 5 5 5 5 5 6 4 3 4 2 2 2 2 2 2 2 1 1 2 2
22 23 22 23 23 21 20 20 19 19 17 15 14 13 13 13 12 11 11 10 9 9 8 8 8 8 8 8 7 7 5 5 4 4 5 5 5 4 4 6 4 4 5 4 3 3 2 3 4 3 2 1 0 2 2 3 3 3 3 4 5 5 4 4 4 5 5 5 5 5 5 4 3 4 3 2 2 1 1 2 2 2 2 2 2
23 23 23 23 23 21 21 20 20 20 18 16 15 13 13 13 12 11 11 10 9 9 9 9 9 8 8 9 8 7 6 6 4 4 4 3 4 6 4 5 5 4 5 5 4 4 3 5 5 3 1 1 1 2 2 3 3 3 3 3 5 4 3 3 4 5 5 4 5 5 5 4 3 3 3 2 3 2 0 1 2 2 2 2 2
23 24 24 24 24 22 21 21 21 21 19 17 15 14 13 12 12 11 10 10 9 9 9 9 9 9 8 9 9 7 7 6 4 3 3 3 4 5 5 6 5 5 5 5 6 6 4 4 4 3 1 1 2 2 3 3 3 2 2 4 4 3 3 3 3 5 5 3 4 5 5 4 4 4 3 2 3 2 1 2 1 2 2 2 3
23 24 24 24 24 23 22 21 22 21 19 18 16 15 14 12 12 11 10 10 9 9 9 8 9 9 8 9 10 8 7 6 5 3 2 2 3 3 5 6 5 5 4 4 6 5 5 5 3 3 2 1 2 1 3 4 3 2 2 4 4 3 3 3 3 4 4 4 4 4 5 3 4 3 2 3 3 1 1 2 2 2 2 2 2
24 24 25 24 23 23 22 21 22 22 20 19 17 15 14 12 12 11 11 10 9 9 9 9 8 9 9 9 9 8 7 6 5 4 3 2 3 3 4 5 5 4 3 4 6 5 5 6 3 1 2 1 2 2 3 3 2 2 3 4 4 3 4 3 3 3 3 4 3 3 4 4 3 4 3 3 4 3 2 1 1 1 2 1 1
25 25 25 25 23 23 22 21 22 22 20 19 18 16 15 13 13 13 12 11 10 10 9 9 9 8 8 9 9 8 8 7 6 5 4 3 3 3 4 4 4 4 3 5 6 5 4 4 3 1 1 1 2 1 1 2 2 2 2 3 3 3 3 3 3 3 3 3 2 1 3 4 4 4 3 3 3 3 3 2 1 1 2 2 2
25 26 26 26 24 24 24 22 23 23 21 20 19 18 16 15 14 14 13 13 12 11 9 9 9 9 8 9 9 8 8 8 7 6 5 4 2 2 3 3 3 3 3 3 4 5 4 3 2 1 0 1 2 1 1 2 3 3 2 2 3 3 4 3 2 3 3 3 3 2 2 4 4 3 3 3 3 3 3 2 2 1 1 2 3
26 27 27 27 25 25 25 24 23 23 22 21 20 19 17 16 16 15 14 13 13 12 11 10 9 9 9 8 9 9 8 8 7 6 6 5 4 3 3 3 3 3 3 2 3 4 3 2 2 2 1 2 2 1 1 1 3 4 3 3 4 3 3 3 3 4 3 2 3 3 2 3 5 4 3 3 2 2 3 3 2 2 1 0 1
28 28 27 28 26 25 25 24 24 24 22 21 21 20 18 17 16 14 14 13 13 12 11 10 10 9 10 9 9 9 9 8 8 8 7 6 5 4 4 4 3 3 3 2 3 3 3 3 4 3 1 1 1 1 0 1 1 3 2 2 3 4 2 3 4 4 4 3 2 4 3 2 5 4 1 2 2 2 3 3 3 2 1 1 1
29 29 28 28 27 26 26 25 24 24 22 22 21 20 18 17 15 14 13 11 12 13 11 11 11 10 10 10 10 10 10 9 9 9 8 7 6 5 4 4 4 3 3 3 3 3 3 4 3 3 2 1 2 1 0 2 1 2 2 2 3 3 2 4 5 4 5 5 2 3 3 2 4 4 1 1 2 1 2 2 2 1 1 1 1
29 30 30 29 28 27 27 26 25 24 23 22 22 20 19 18 16 14 13 10 10 12 13 12 12 11 10 11 11 11 10 10 9 10 9 8 7 6 5 5 5 5 4 4 4 3 4 4 2 3 3 2 2 1 0 2 2 1 1 1 1 1 1 2 5 4 4 5 4 3 3 2 3 4 1 1 1 1 1 3 3 2 2 2 1
30 30 31 30 28 28 28 27 25 25 23 23 23 22 21 20 18 16 16 13 11 13 14 13 13 12 11 11 12 12 11 10 10 10 10 9 8 7 6 5 5 5 5 4 3 3 3 3 2 2 3 2 1 1 2 4 4 2 2 1 2 1 3 3 1 2 2 3 2 3 4 3 4 5 3 2 3 3 2 3 3 3 3 3 3
30 30 30 30 29 29 29 28 26 25 24 24 25 23 22 22 21 19 18 16 15 14 14 13 12 12 12 12 12 12 12 11 11 11 10 9 9 8 7 6 5 5 5 5 4 4 2 2 3 2 2 2 1 1 1 4 3 2 2 2 1 1 3 3 2 1 1 2 3 1 4 4 3 4 4 3 4 4 3 2 2 3 4 3 4
30 30 30 31 30 30 30 28 26 25 25 25 26 25 23 22 22 21 19 18 17 15 13 12 11 10 11 12 12 12 12 12 11 11 11 10 9 8 8 7 6 6 5 5 6 5 2 3 3 3 2 2 2 2 1 1 1 2 3 2 2 0 0 1 1 1 0 1 1 3 2 1 2 2 2 2 3 4 5 4 3 3 5 5 4
31 31 30 30 31 30 30 29 27 26 26 27 27 26 24 23 22 21 20 19 17 15 13 13 12 11 11 11 12 11 12 12 12 11 11 11 10 9 9 8 8 7 6 6 6 5 4 3 4 4 3 3 3 2 1 1 2 2 3 2 2 2 2 3 3 2 2 0 0 1 1 0 1 0 0 1 1 2 4 6 5 5 5 6 6
31 31 30 30 31 30 30 31 29 28 27 28 28 27 25 24 23 22 21 20 18 16 14 13 13 12 11 12 12 12 12 12 12 12 12 11 11 10 9 9 9 8 7 6 5 5 5 5 5 4 4 4 3 3 3 3 3 2 2 3 3 3 3 3 4 4 3 1 2 2 2 2 1 2 1 1 1 2 2 3 5 5 6 6 6
30 31 31 30 31 31 31 32 30 28 28 29 29 28 26 25 24 24 23 21 19 18 16 14 14 14 14 13 13 13 12 12 12 13 13 12 12 11 10 10 10 9 8 7 6 6 6 6 6 6 5 5 4 4 4 4 4 4 3 4 5 4 4 3 4 3 1 2 3 4 2 2 2 1 2 1 2 4 3 3 5 5 5 6 6
Wind_Direction
114 117 120 120 119 120 119 120 122 123 123 124 128 131 129 125 123 123 125 123 120 116 113 111 110 109 108 108 109 109 107 106 103 101 99 98 97 96 93 90 87 86 88 91 92 94 97 99 101 102 101 100 97 102 106 105 103 97 94 94 95 94 87 80 71 74 83 87 92 91 89 89 88 88 86 80 76 79 85 87 81 66 56 69 80
125 119 119 120 121 122 121 123 128 130 128 128 129 130 128 125 123 123 124 119 115 112 112 111 111 112 112 113 112 111 108 106 103 102 101 100 97 94 92 89 87 87 89 92 95 95 97 99 102 103 104 106 103 103 103 99 98 94 92 94 96 93 86 82 75 78 85 86 89 89 89 91 89 87 84 80 77 77 81 84 87 82 65 66 75
125 120 121 123 124 125 126 128 131 131 131 132 132 131 127 125 122 121 120 115 113 114 115 116 117 118 117 116 114 112 109 106 104 102 102 101 96 92 88 86 86 86 87 89 94 96 98 99 100 103 107 108 102 101 98 95 94 91 90 93 91 88 85 83 82 84 87 87 86 86 87 87 84 80 78 80 82 83 86 84 87 91 86 78 78
121 120 120 121 125 126 129 129 129 130 131 132 132 128 126 123 119 117 117 116 117 120 121 122 122 121 119 116 115 113 109 106 106 103 99 97 93 90 87 85 86 87 86 87 93 95 96 97 99 103 104 101 96 97 96 92 88 84 82 84 83 86 91 87 84 87 90 90 83 79 82 81 78 76 75 80 85 88 90 88 86 90 92 88 82
120 120 118 120 123 125 126 124 126 129 128 128 126 121 120 118 117 119 121 122 123 127 128 126 123 118 116 115 114 111 107 103 100 96 91 92 91 89 87 85 85 85 83 88 94 95 97 99 99 98 99 97 94 92 90 88 83 77 72 76 81 84 87 84 84 87 92 92 84 81 86 87 87 84 83 84 87 92 93 91 87 85 87 88 84
122 121 121 122 123 123 122 121 122 125 125 124 120 115 115 116 120 125 127 128 131 134 132 129 125 116 112 112 112 108 104 99 96 97 98 102 100 93 88 85 85 82 85 92 95 97 99 99 99 98 99 96 93 90 86 84 81 79 74 76 78 75 79 85 87 90 93 92 92 93 90 91 95 94 90 88 90 92 91 91 89 83 82 85 85
122 123 125 125 126 125 124 124 123 123 123 119 115 114 117 123 129 132 133 134 135 136 134 135 130 119 114 112 109 105 103 101 104 112 114 112 107 100 93 89 85 82 90 96 96 99 100 98 98 99 99 95 92 91 87 83 82 81 77 76 77 77 83 89 89 92 92 88 95 101 98 97 99 98 93 92 93 91 89 90 89 85 84 85 85
124 125 125 125 127 129 129 130 129 128 124 121 119 123 129 134 134 135 137 136 135 138 139 137 131 124 121 117 112 108 107 110 114 113 108 107 106 103 97 92 89 88 93 97 98 100 99 99 98 98 99 97 93 90 89 86 84 80 77 76 77 81 86 90 90 93 89 84 90 96 99 101 98 97 96 96 95 92 89 85 85 87 87 85 86
126 125 124 124 128 131 132 132 132 131 128 127 130 133 135 135 134 135 138 137 135 134 135 134 130 129 127 123 115 110 109 110 110 105 106 108 108 104 97 94 93 92 95 98 99 100 99 100 100 100 100 99 94 90 90 87 83 79 77 77 76 81 87 85 80 83 87 91 96 95 97 101 96 96 99 100 97 92 88 84 85 90 91 90 91
126 125 124 124 129 132 131 132 132 132 132 133 136 136 134 133 135 137 134 134 131 126 129 130 127 127 124 119 116 114 110 108 106 104 108 109 109 107 100 96 95 95 97 98 99 100 99 99 99 101 101 100 96 92 92 88 82 79 77 77 76 82 89 86 76 78 89 99 106 104 100 102 99 99 102 102 97 90 86 91 94 94 94 94 94
127 126 124 126 131 132 130 132 132 133 134 134 133 132 133 132 132 132 128 127 127 125 127 125 122 121 118 116 117 117 110 110 114 110 108 108 111 110 103 97 96 96 94 94 97 98 95 95 97 98 98 99 97 93 91 86 81 79 78 78 79 85 95 96 90 84 89 96 103 105 101 99 97 100 104 100 96 90 87 95 97 95 96 96 96
128 126 125 128 131 132 132 133 133 133 133 131 127 126 128 127 125 124 123 123 125 125 125 124 121 118 117 117 118 114 109 114 120 113 111 111 111 109 106 100 98 99 96 94 95 93 93 95 96 97 100 99 95 94 91 86 82 80 77 76 83 89 92 95 93 87 88 95 98 100 100 99 99 102 104 100 98 94 91 96 96 96 98 99 98
128 126 125 126 130 133 133 133 133 132 131 128 124 123 123 121 119 120 120 119 120 120 120 120 119 120 121 120 118 111 109 114 116 111 111 113 114 112 111 105 102 105 104 101 95 91 94 100 100 99 101 98 94 96 95 89 83 80 79 75 79 84 84 85 88 89 90 93 95 98 100 98 102 106 106 104 101 98 96 98 98 98 100 100 99
131 129 127 127 130 134 133 131 131 130 128 124 123 124 122 119 119 120 120 118 120 120 119 119 119 120 120 119 116 112 111 114 112 109 112 116 117 115 110 106 104 107 107 104 97 91 93 101 104 100 98 97 97 100 98 94 87 84 88 83 75 79 82 84 86 89 88 89 93 97 100 98 102 106 106 106 105 103 101 99 100 100 102 102 100
134 133 130 129 132 133 132 131 132 131 127 125 125 123 123 122 122 123 123 121 123 123 120 120 121 119 119 118 114 112 111 111 112 113 115 116 116 114 110 108 108 108 109 107 99 91 92 99 102 100 99 99 99 101 99 95 91 88 93 94 81 77 84 90 88 88 92 95 94 94 98 99 103 106 106 107 108 108 103 100 103 104 103 103 102
135 134 132 133 135 135 135 134 134 131 127 126 124 124 125 126 126 125 124 124 123 122 121 121 121 120 117 112 109 109 106 108 113 115 113 116 118 117 116 115 114 112 114 111 101 95 96 101 103 105 104 103 100 100 99 95 94 91 95 98 90 80 84 92 91 91 97 101 99 98 100 101 105 107 108 110 110 106 103 104 106 106 105 105 104
136 136 135 137 138 139 139 138 136 131 128 128 127 128 128 127 128 127 125 124 123 123 122 122 121 120 117 110 109 108 106 109 113 114 111 116 119 121 121 119 117 114 117 114 104 97 96 101 103 105 103 102 99 95 98 97 96 94 97 101 95 87 85 92 95 96 97 100 101 100 100 103 106 105 105 108 106 105 109 112 107 105 106 106 105
138 139 139 140 142 143 141 141 139 135 133 131 132 132 130 130 130 129 127 126 125 124 123 123 122 122 120 113 113 111 110 111 112 113 112 114 115 118 120 119 118 115 117 116 112 103 98 100 98 98 98 97 95 93 95 95 97 97 99 103 101 95 88 94 100 99 98 100 102 101 99 102 102 101 103 105 106 109 112 112 108 109 112 108 106
141 141 142 143 144 145 142 144 143 140 139 136 136 134 132 132 130 130 128 128 127 126 124 123 124 123 121 116 114 112 110 111 111 111 111 110 109 112 117 120 121 118 119 120 116 105 100 100 97 96 97 95 95 96 95 93 96 100 102 102 103 95 90 100 98 94 98 96 97 98 97 98 98 101 106 107 107 105 102 103 110 121 119 112 109
142 144 144 145 146 145 146 148 145 142 140 137 138 137 135 133 131 131 129 130 129 127 126 125 126 124 122 117 112 110 109 109 106 107 108 109 108 109 115 121 123 122 126 124 114 104 102 100 96 95 94 93 95 97 95 92 93 98 101 100 101 100 100 110 101 95 100 95 94 93 90 90 90 93 97 98 98 98 102 113 126 132 123 116 114
145 149 146 146 148 147 148 149 145 142 141 139 139 139 137 136 134 132 131 132 132 130 129 129 130 127 124 118 114 113 113 110 107 109 111 112 112 111 112 115 119 123 124 118 108 102 100 98 96 94 93 95 98 99 92 88 87 90 97 97 99 104 104 107 102 101 103 99 100 98 91 87 86 85 85 90 97 106 122 136 139 134 124 120 118
149 151 149 149 150 149 148 148 144 140 143 142 141 142 141 140 140 138 134 134 135 133 133 135 135 131 125 118 119 119 117 117 115 117 117 116 116 114 113 110 110 113 112 110 105 101 100 98 98 101 105 103 95 95 89 80 81 84 89 93 93 97 103 102 99 102 104 103 104 103 100 97 95 93 92 96 100 108 119 125 126 122 120 118 115
152 153 153 152 152 152 149 148 144 142 145 144 144 147 145 144 143 142 141 142 142 140 142 144 139 135 130 120 118 116 119 123 123 121 118 119 119 118 116 110 104 102 103 104 102 100 99 97 97 101 108 99 82 91 105 81 76 90 91 93 93 92 99 97 96 103 104 105 108 108 107 104 103 102 101 102 102 103 106 107 109 108 110 111 110
154 154 155 153 155 154 150 148 145 145 144 144 148 149 146 146 146 147 148 150 150 148 150 150 144 140 139 131 124 121 119 120 123 125 120 121 121 120 119 116 111 106 104 105 103 100 100 100 96 90 87 92 83 95 130 104 62 100 104 100 99 94 97 98 102 108 108 108 113 113 112 109 106 105 103 102 101 100 98 96 97 99 101 103 104
155 154 156 155 157 156 151 148 147 147 145 147 151 148 148 148 149 152 153 154 154 151 152 151 146 145 143 134 128 128 128 124 124 127 131 135 130 127 126 123 121 120 117 114 115 115 111 108 102 96 82 87 100 102 134 119 80 93 100 95 94 91 94 100 105 108 110 113 116 118 117 114 110 107 104 101 99 97 95 93 91 93 95 97 100
158 155 158 157 159 158 154 152 150 150 149 150 148 145 149 151 152 156 156 156 152 151 151 147 146 146 137 128 129 131 132 131 126 124 133 139 135 135 136 135 133 132 128 119 128 140 133 131 133 133 116 97 116 124 114 101 88 86 88 87 87 88 90 96 104 110 115 117 117 120 119 117 116 112 109 102 99 96 92 91 89 89 92 94 94
160 156 159 159 160 160 157 155 152 152 152 151 148 148 152 152 156 156 156 155 150 151 151 146 145 144 135 130 133 133 130 129 128 124 123 129 130 136 152 157 149 137 136 138 145 157 153 148 150 147 135 118 115 112 96 89 87 84 87 85 83 86 90 93 102 113 119 118 117 121 120 119 119 117 114 108 102 98 94 91 90 87 88 91 93
160 158 160 161 163 161 160 158 154 155 155 154 153 153 154 153 155 156 155 153 152 152 148 145 142 142 139 132 134 134 134 129 130 132 127 134 131 130 145 149 141 132 136 144 139 143 143 133 131 126 121 117 110 99 92 91 89 88 87 87 87 85 87 90 98 111 116 114 112 116 120 120 119 119 117 114 108 104 100 95 91 86 85 85 89
161 161 162 163 165 161 161 161 157 159 157 158 157 155 156 155 155 157 154 153 155 151 146 148 144 143 135 130 145 134 132 127 127 132 128 132 126 121 123 113 118 119 116 121 117 120 123 115 115 115 111 107 104 99 93 94 94 95 91 88 91 87 87 89 96 107 110 116 117 113 120 120 120 123 120 120 117 112 107 103 101 98 95 90 89
164 164 164 165 166 162 163 163 161 163 161 160 159 158 159 156 158 157 155 158 155 149 152 153 148 146 136 129 140 120 123 125 123 126 123 125 120 115 112 108 113 109 106 113 112 111 116 119 117 111 112 108 102 98 89 90 90 90 90 87 86 85 90 91 95 105 114 125 125 113 119 121 120 124 125 126 123 119 116 117 118 115 114 109 105
165 166 167 165 167 165 164 164 163 165 163 163 160 160 162 158 161 159 158 162 154 155 161 156 147 143 138 131 123 99 104 117 122 123 123 120 118 120 116 112 114 110 115 118 118 123 108 100 111 109 109 112 111 103 87 82 82 84 90 92 88 85 89 95 100 103 109 120 123 120 117 116 122 123 120 120 124 129 129 131 128 128 136 131 131
167 168 168 167 168 167 165 164 165 167 166 167 163 162 164 161 162 161 163 163 157 165 165 153 145 135 135 135 132 101 84 105 116 119 124 116 111 120 112 103 111 115 114 103 113 132 105 70 102 113 101 110 114 103 91 81 80 80 88 93 93 90 88 94 96 95 100 113 127 132 119 112 119 119 120 123 129 138 143 147 130 128 155 164 169
169 169 168 169 170 167 166 166 167 169 169 170 167 165 164 164 165 164 165 164 164 172 164 153 145 136 140 140 137 122 95 106 113 106 118 119 113 114 105 100 111 113 109 100 98 102 95 73 77 67 36 108 125 115 103 88 84 77 81 86 87 88 91 95 95 101 108 114 123 129 130 132 121 108 115 132 142 148 155 179 157 150 186 204 204
168 168 170 171 171 168 166 169 169 170 171 171 168 167 166 167 170 168 167 167 171 172 164 158 147 145 148 143 143 136 115 116 126 123 123 127 122 114 116 125 125 117 120 126 117 97 98 74 56 49 60 110 144 124 107 91 83 69 69 79 86 91 97 97 94 99 99 103 111 117 128 143 132 118 119 126 141 157 174 220 241 216 213 232 234
169 169 171 171 172 170 168 169 170 170 171 170 169 170 169 170 173 172 171 170 174 172 167 164 156 156 154 148 152 146 134 129 137 141 129 134 133 133 136 128 131 125 126 133 104 100 124 92 75 64 79 86 75 121 118 111 99 77 69 76 85 93 99 95 95 101 99 99 106 108 118 130 134 133 137 137 136 140 191 219 237 246 249 245 242
171 171 171 172 174 171 171 170 169 171 170 170 170 171 170 170 174 174 173 172 173 176 173 168 164 163 158 156 159 152 149 144 147 148 131 143 144 147 154 132 133 119 118 128 104 109 120 83 79 68 32 51 89 112 121 118 118 113 116 106 91 93 101 103 105 102 97 104 116 117 120 122 125 134 147 157 162 165 47 257 245 250 251 252 253
172 172 170 173 175 171 174 173 169 170 169 169 169 170 171 170 175 176 173 174 176 177 176 173 168 167 162 158 159 158 157 153 159 161 140 155 156 153 157 143 134 113 123 138 121 129 134 106 94 68 19 353 61 95 118 122 135 133 122 104 91 98 106 100 99 97 96 106 118 120 119 124 134 149 170 156 158 183 359 359 290 267 262 256 251
173 173 172 174 175 172 175 174 170 171 169 169 169 169 171 169 174 176 173 177 181 178 176 175 171 169 166 159 159 159 160 162 167 168 173 177 162 159 150 142 124 110 134 124 110 125 121 117 114 51 12 349 12 64 109 115 145 141 102 92 95 115 119 105 99 102 110 110 107 114 111 113 123 128 150 141 127 149 338 354 339 278 265 267 263
175 175 174 174 176 172 175 173 170 172 168 168 169 168 170 171 174 176 175 180 184 182 178 179 178 173 168 163 162 162 163 171 171 171 206 202 156 163 141 131 121 121 138 106 114 134 101 95 107 76 312 338 8 3 81 111 159 143 91 90 100 113 110 111 117 116 114 108 109 122 104 97 105 101 117 149 140 140 155 15 5 250 252 275 287
178 177 174 175 176 173 175 174 171 172 168 168 171 170 171 173 175 178 180 182 184 187 185 183 185 178 169 166 166 167 167 175 178 175 197 207 169 161 133 126 134 134 133 118 128 137 109 94 98 98 281 348 27 1 76 130 150 121 93 101 112 122 117 116 137 138 129 116 110 106 102 96 97 96 95 117 125 125 133 145 153 194 247 294 322
179 178 175 177 177 174 175 174 173 173 171 171 173 174 175 175 178 182 183 182 183 186 189 188 187 180 170 169 171 174 175 179 186 182 190 209 194 152 136 144 154 137 129 119 108 98 100 107 89 101 231 10 39 67 102 124 136 143 167 161 140 142 137 137 166 158 150 148 135 114 118 116 109 109 103 94 95 106 112 131 140 127 172 310 332
181 180 178 179 178 176 176 174 174 175 174 174 175 176 178 179 181 185 184 182 184 186 189 190 189 181 174 176 179 181 184 185 192 191 192 200 197 171 156 166 172 147 136 123 97 94 114 134 127 150 171 14 23 39 88 145 160 156 169 176 161 155 145 165 191 167 162 181 157 143 144 142 127 114 115 117 118 125 115 109 92 84 120 197 305
181 181 181 180 179 178 177 176 175 176 177 176 176 178 179 181 182 185 186 182 184 188 187 188 192 184 179 185 187 185 188 191 195 196 200 203 200 193 174 177 191 161 147 160 143 137 161 151 132 145 164 40 24 10 330 227 191 131 146 195 173 154 151 210 210 172 174 201 188 158 149 148 129 115 142 160 147 137 119 106 98 91 113 127 200
180 182 183 182 181 180 178 177 177 176 178 177 178 179 178 181 183 186 191 188 181 183 186 188 193 191 185 188 191 191 193 196 199 199 203 206 203 204 193 184 189 180 169 176 175 170 172 156 133 155 170 83 47 39 16 256 253 136 163 222 198 172 166 191 182 176 187 190 207 167 140 149 133 123 194 173 122 137 149 149 140 133 137 137 190
182 182 184 184 183 182 178 177 178 177 179 177 177 178 177 178 181 183 190 193 179 179 188 188 189 195 191 189 193 196 198 199 203 202 203 204 202 206 208 192 185 188 195 193 195 190 172 165 146 162 169 103 77 115 134 218 202 212 278 282 244 156 73 181 162 168 210 190 190 165 138 193 156 138 214 221 154 232 213 168 157 174 188 177 196
184 184 185 185 184 183 179 177 177 178 179 178 176 177 177 178 179 179 183 187 181 181 190 191 188 194 195 194 194 197 201 202 204 204 203 203 202 206 210 208 198 194 205 213 210 196 178 175 144 143 171 146 132 188 173 167 163 190 257 285 310 5 8 337 50 118 245 242 209 163 161 204 181 157 189 215 200 216 223 181 174 187 190 192 204
185 184 185 186 185 183 181 178 177 178 179 179 178 178 179 180 181 182 183 185 187 188 192 196 195 195 197 197 194 196 201 204 205 204 204 203 202 204 208 212 213 206 209 217 220 216 198 175 151 142 157 141 151 272 166 145 136 172 215 211 238 322 5 351 12 89 203 314 338 271 197 190 191 187 189 207 207 192 192 204 208 198 190 197 209
183 184 185 186 186 184 182 180 178 178 179 180 180 180 181 182 183 186 188 191 195 196 195 200 204 201 199 199 197 196 199 204 206 205 204 204 202 203 206 209 214 215 213 216 224 227 195 148 156 164 161 151 179 255 298 101 131 166 191 226 217 208 340 183 49 31 112 4 331 285 275 162 188 203 179 221 224 185 184 202 228 227 208 207 210
183 184 185 185 185 184 182 181 180 179 180 181 181 183 183 183 185 188 192 197 201 202 201 203 206 205 201 201 201 197 196 203 208 207 206 205 203 204 205 207 211 213 217 221 224 222 204 182 181 187 194 194 195 215 238 253 262 185 158 210 239 202 218 206 179 181 191 237 275 257 322 282 247 21 12 283 252 200 195 188 201 226 220 215 214
185 184 185 185 185 184 183 184 183 181 181 182 182 184 184 184 187 190 193 197 200 203 203 201 200 202 201 199 202 200 199 204 208 209 209 207 206 205 206 209 211 212 217 223 224 218 213 205 205 206 204 209 207 210 219 227 260 273 163 185 220 219 221 224 213 206 186 186 258 257 230 226 178 133 225 302 358 308 265 190 204 220 215 216 221
186 183 185 186 184 184 184 185 184 182 182 183 182 184 186 187 189 192 194 196 197 198 200 198 195 195 197 198 200 202 205 208 208 210 211 211 209 207 210 212 212 213 214 218 222 220 217 213 213 215 214 218 221 221 230 231 239 258 236 200 207 215 210 218 235 247 236 213 250 275 290 343 13 141 210 271 276 264 253 235 242 237 220 220 225